Location: Fours
(44.3167°N, 6.7000°E)
Time: 13:10:06
(UTC+00:00)

Cosmos 1656 Rocket - Pass Details

Date: 30 November 2020
Orbit: 796 x 846 km, 71.1° (Epoch: 25 January)

Event Time Altitude Azimuth Distance (km) Brightness Sun altitude
Rises 17:24:14 0° 339° (NNW) 3,406 6.9 -15.4°
Reaches altitude 10° 17:26:52 10° 348° (NNW) 2,462 6.1 -15.9°
Maximum altitude 17:32:09 39° 56° (ENE) 1,227 4.1 -16.8°
Enters shadow 17:35:19 21° 113° (ESE) 1,770 4.9 -17.3°
